STARLINK-32886, 62807

Orbit data source: Space-Track

STARLINK-32886, 62807 is a payload satellite owned by SpaceX/Seattle (US) in LEO that was launched on Fri, 24 Jan 2025 UTC via an FALCON 9 launch vehicle from the Air Force Western Test Range (AFWTR). Payload-class satellites include a variety of spacecraft equipped with specific instruments for various scientific and technological missions. These include communications satellites like Starlink; space stations such as the ISS; scientific satellites like the Hubble; Earth observation satellites from companies like Planet Labs, Umbra, and HawkEye 360; GPS; miniature CubeSats for education and research; and military/defense satellites.

Loading next visibility...
Identifier
62807, 2025-018B
Orbit
LEO
Country
Flag of USUS
Related business
Manufacturer
SpaceX/Seattle
Mission
Operational Commercial Communications
Bus & Motor
STARLINK V2M, Unknown motor
Mass
730 kg wet, ~700 kg dry
Launch date (UTC)
2025-01-24 (8 months ago)
Launch vehicle
FALCON 9
Launch site
Air Force Western Test Range (AFWTR)
Object type
Payload
Rocket body
Debris
Shape & HBR
Box + 2 Pan, 14.5 m
Radar Cross Section
33.884 m², Large (>1 m²)

Expand to show TLE details & history
Last TLE update: 1 day ago

TLE from 1 day ago
0 STARLINK-32886
1 62807U 25018B   25259.65126712  .00019751  00000-0  67728-3 0  9998
2 62807  53.1612  37.8927 0000804 105.3385 254.7705 15.30196438 36533
Epoch: 2025-09-16T15:37Z
TLE epoch observation values (Epoch: 2025-09-16T15:37:49.479Z)
Latitude
0.00002°
Longitude
167.59804°
Altitude
476.27 km
Speed
7.629 km/s
True Right ascension
02h 31m 34s
True Declination
0° 00' 00"
Sunlit
Object was in full shadow at epoch
Visualization orbit readout
Latitude
Unknown
Longitude
Unknown
Altitude
Unknown
Speed
Unknown
Apparent Right ascension
Unknown
Apparent Declination
Unknown
Sunlit
N/A
Visualization observer readout
Local Sidereal Time
19:15:13
Azimuth
Unknown
Elevation
Unknown
Doppler factor
Unknown
Orbital elements
Apogee altitude
476.033 km
Perigee altitude
474.931 km
Semi-major axis
6,853.619 km
Eccentricity
0.00008
Inclination
53.1612°
RAAN
37.8927°
Arg. of periapsis
105.3385°
True anomaly
254.76161°
Mean anomaly
254.7705°
Eccentric anomaly
254.76606°
Mean motion
3.82528 °/min
Orbital period
94.11 mins
BSTAR
0.00067728
Loading maneuver chart data...
Computing Atmospheric mass density...
Loading historical data...
Loading historical data...
Loading historical data...
Loading historical data...
Loading historical data...
Loading historical data...
Loading historical data...

Documentation

Showing up to 5 results
|